Time,TemperatureF,DewpointF,PressureIn,WindDirection,WindDirectionDegrees,WindSpeedMPH,WindSpeedGustMPH,Humidity,HourlyPrecipIn,Conditions,Clouds,dailyrainin,SoftwareType,DateUTC
2013-02-14 00:00:00,44.1,39.9,30.07,North,0,2.0,6.0,85,0.00,,,0.01,meteohub,2013-02-14 06:00:00,
2013-02-14 00:05:00,44.1,39.9,30.07,North,0,2.0,4.0,85,0.00,,,0.00,meteohub,2013-02-14 06:05:00,
2013-02-14 00:10:00,43.9,39.7,30.07,North,0,2.0,3.0,85,0.00,,,0.00,meteohub,2013-02-14 06:10:00,
2013-02-14 00:15:00,43.7,39.7,30.07,North,0,0.0,3.0,86,0.00,,,0.00,meteohub,2013-02-14 06:15:00,
2013-02-14 00:20:00,43.5,39.6,30.07,North,0,2.0,3.0,86,0.00,,,0.00,meteohub,2013-02-14 06:20:00,
2013-02-14 00:25:00,43.5,39.6,30.07,North,0,2.0,3.0,86,0.00,,,0.00,meteohub,2013-02-14 06:25:00,
2013-02-14 00:30:00,43.5,39.6,30.07,North,0,1.0,3.0,86,0.00,,,0.00,meteohub,2013-02-14 06:30:00,
2013-02-14 00:35:00,43.5,39.6,30.07,North,0,0.0,3.0,86,0.00,,,0.00,meteohub,2013-02-14 06:35:00,
2013-02-14 00:40:00,43.3,39.4,30.07,North,0,0.0,3.0,86,0.00,,,0.00,meteohub,2013-02-14 06:40:00,
2013-02-14 00:45:00,43.2,39.2,30.07,North,0,0.0,1.0,86,0.00,,,0.00,meteohub,2013-02-14 06:45:00,
2013-02-14 00:50:00,42.6,38.7,30.08,North,0,0.0,0.0,86,0.00,,,0.00,meteohub,2013-02-14 06:50:00,
2013-02-14 00:55:00,42.3,38.7,30.08,North,0,0.0,0.0,87,0.00,,,0.00,meteohub,2013-02-14 06:55:00,
2013-02-14 01:00:00,42.1,38.8,30.08,North,0,0.0,1.0,88,0.00,,,0.00,meteohub,2013-02-14 07:00:00,
2013-02-14 01:06:00,42.1,38.8,30.08,North,0,0.0,1.0,88,0.00,,,0.00,meteohub,2013-02-14 07:06:00,
2013-02-14 01:11:00,41.9,38.7,30.08,North,0,0.0,1.0,88,0.00,,,0.00,meteohub,2013-02-14 07:11:00,
2013-02-14 01:16:00,41.7,38.5,30.09,North,0,0.0,2.0,88,0.00,,,0.00,meteohub,2013-02-14 07:16:00,
2013-02-14 01:21:00,41.7,38.7,30.09,North,0,0.0,2.0,89,0.00,,,0.00,meteohub,2013-02-14 07:21:00,
2013-02-14 01:26:00,41.7,38.7,30.08,North,0,1.0,2.0,89,0.00,,,0.00,meteohub,2013-02-14 07:26:00,
2013-02-14 01:31:00,41.7,38.7,30.08,North,0,2.0,2.0,89,0.00,,,0.00,meteohub,2013-02-14 07:31:00,
2013-02-14 01:36:00,42.1,39.0,30.08,North,0,0.0,2.0,89,0.00,,,0.00,meteohub,2013-02-14 07:36:00,
2013-02-14 01:41:00,42.3,39.2,30.09,North,0,0.0,2.0,89,0.00,,,0.00,meteohub,2013-02-14 07:41:00,
2013-02-14 01:46:00,42.3,39.2,30.09,North,0,0.0,2.0,89,0.00,,,0.00,meteohub,2013-02-14 07:46:00,
2013-02-14 01:51:00,41.7,38.5,30.09,North,0,0.0,1.0,88,0.00,,,0.00,meteohub,2013-02-14 07:51:00,
2013-02-14 01:56:00,41.5,38.5,30.09,North,0,0.0,0.0,89,0.00,,,0.00,meteohub,2013-02-14 07:56:00,
2013-02-14 02:01:00,41.4,38.7,30.09,North,0,0.0,0.0,90,0.00,,,0.00,meteohub,2013-02-14 08:01:00,
2013-02-14 02:06:00,41.5,38.8,30.09,North,0,0.0,0.0,90,0.00,,,0.00,meteohub,2013-02-14 08:06:00,
2013-02-14 02:11:00,41.5,38.8,30.09,North,0,0.0,0.0,90,0.00,,,0.00,meteohub,2013-02-14 08:11:00,
2013-02-14 02:16:00,41.4,38.7,30.08,North,0,0.0,0.0,90,0.00,,,0.00,meteohub,2013-02-14 08:16:00,
2013-02-14 02:21:00,41.4,39.0,30.09,North,0,0.0,0.0,91,0.00,,,0.00,meteohub,2013-02-14 08:21:00,
2013-02-14 02:26:00,41.4,39.0,30.09,North,0,0.0,1.0,91,0.00,,,0.00,meteohub,2013-02-14 08:26:00,
2013-02-14 02:31:00,41.2,38.8,30.09,North,0,0.0,1.0,91,0.00,,,0.00,meteohub,2013-02-14 08:31:00,
2013-02-14 02:36:00,41.2,38.8,30.09,North,0,0.0,0.0,91,0.00,,,0.00,meteohub,2013-02-14 08:36:00,
2013-02-14 02:41:00,41.4,39.0,30.10,North,0,0.0,0.0,91,0.00,,,0.00,meteohub,2013-02-14 08:41:00,
2013-02-14 02:46:00,41.2,38.8,30.09,North,0,0.0,0.0,91,0.00,,,0.00,meteohub,2013-02-14 08:46:00,
2013-02-14 02:51:00,41.2,38.8,30.09,North,0,0.0,0.0,91,0.00,,,0.00,meteohub,2013-02-14 08:51:00,
2013-02-14 02:56:00,41.2,38.8,30.09,North,0,0.0,0.0,91,0.00,,,0.00,meteohub,2013-02-14 08:56:00,
2013-02-14 03:01:00,41.2,38.8,30.09,North,0,0.0,0.0,91,0.00,,,0.00,meteohub,2013-02-14 09:01:00,
2013-02-14 03:06:00,41.0,38.7,30.09,North,0,0.0,0.0,91,0.00,,,0.00,meteohub,2013-02-14 09:06:00,
2013-02-14 03:11:00,40.8,38.5,30.09,North,0,0.0,0.0,91,0.00,,,0.00,meteohub,2013-02-14 09:11:00,
2013-02-14 03:16:00,40.8,38.5,30.09,North,0,0.0,0.0,91,0.00,,,0.00,meteohub,2013-02-14 09:16:00,
2013-02-14 03:21:00,41.0,38.8,30.09,North,0,0.0,1.0,92,0.00,,,0.00,meteohub,2013-02-14 09:21:00,
2013-02-14 03:26:00,41.0,38.8,30.09,North,0,0.0,1.0,92,0.00,,,0.00,meteohub,2013-02-14 09:26:00,
2013-02-14 03:31:00,41.0,38.8,30.09,North,0,0.0,1.0,92,0.00,,,0.00,meteohub,2013-02-14 09:31:00,
2013-02-14 03:36:00,41.2,39.0,30.09,North,0,0.0,0.0,92,0.00,,,0.00,meteohub,2013-02-14 09:36:00,
2013-02-14 03:41:00,41.2,39.0,30.09,North,0,0.0,0.0,92,0.00,,,0.00,meteohub,2013-02-14 09:41:00,
2013-02-14 03:46:00,41.2,39.0,30.09,North,0,0.0,0.0,92,0.00,,,0.00,meteohub,2013-02-14 09:46:00,
2013-02-14 03:52:00,41.2,39.0,30.09,North,0,0.0,0.0,92,0.00,,,0.00,meteohub,2013-02-14 09:52:00,
2013-02-14 03:57:00,41.2,39.0,30.09,North,0,0.0,1.0,92,0.00,,,0.00,meteohub,2013-02-14 09:57:00,
2013-02-14 04:02:00,41.2,39.0,30.09,North,0,0.0,1.0,92,0.00,,,0.00,meteohub,2013-02-14 10:02:00,
2013-02-14 04:07:00,41.4,39.2,30.09,North,0,2.0,2.0,92,0.00,,,0.00,meteohub,2013-02-14 10:07:00,
2013-02-14 04:12:00,41.7,39.6,30.09,North,0,1.0,4.0,92,0.00,,,0.00,meteohub,2013-02-14 10:12:00,
2013-02-14 04:17:00,42.1,39.6,30.09,North,0,2.0,4.0,91,0.00,,,0.00,meteohub,2013-02-14 10:17:00,
2013-02-14 04:22:00,41.7,39.0,30.09,North,0,0.0,4.0,90,0.00,,,0.00,meteohub,2013-02-14 10:22:00,
2013-02-14 04:27:00,41.5,38.8,30.09,North,0,0.0,3.0,90,0.00,,,0.00,meteohub,2013-02-14 10:27:00,
2013-02-14 04:32:00,41.2,38.5,30.09,North,0,0.0,2.0,90,0.00,,,0.00,meteohub,2013-02-14 10:32:00,
2013-02-14 04:37:00,40.8,38.1,30.09,North,0,0.0,0.0,90,0.00,,,0.00,meteohub,2013-02-14 10:37:00,
2013-02-14 04:42:00,40.6,37.9,30.09,North,0,0.0,0.0,90,0.00,,,0.00,meteohub,2013-02-14 10:42:00,
2013-02-14 04:47:00,40.6,38.3,30.08,North,0,2.0,2.0,91,0.00,,,0.00,meteohub,2013-02-14 10:47:00,
2013-02-14 04:52:00,40.6,38.3,30.09,North,0,2.0,4.0,91,0.00,,,0.00,meteohub,2013-02-14 10:52:00,
2013-02-14 04:57:00,41.2,38.8,30.09,North,0,1.0,4.0,91,0.00,,,0.00,meteohub,2013-02-14 10:57:00,
2013-02-14 05:02:00,41.2,38.8,30.09,North,0,0.0,4.0,91,0.00,,,0.00,meteohub,2013-02-14 11:02:00,
2013-02-14 05:07:00,40.8,38.1,30.10,North,0,0.0,4.0,90,0.00,,,0.00,meteohub,2013-02-14 11:07:00,
2013-02-14 05:12:00,40.5,37.8,30.11,North,0,0.0,2.0,90,0.00,,,0.00,meteohub,2013-02-14 11:12:00,
2013-02-14 05:17:00,40.3,37.9,30.11,North,0,0.0,1.0,91,0.00,,,0.00,meteohub,2013-02-14 11:17:00,
2013-02-14 05:22:00,40.5,38.1,30.10,North,0,0.0,1.0,91,0.00,,,0.00,meteohub,2013-02-14 11:22:00,
2013-02-14 05:27:00,40.5,38.1,30.10,North,0,1.0,1.0,91,0.00,,,0.00,meteohub,2013-02-14 11:27:00,
2013-02-14 05:32:00,40.3,37.9,30.10,North,0,0.0,2.0,91,0.00,,,0.00,meteohub,2013-02-14 11:32:00,
2013-02-14 05:37:00,40.3,38.1,30.10,North,355,0.0,3.0,92,0.00,,,0.00,meteohub,2013-02-14 11:37:00,
2013-02-14 05:42:00,40.3,37.9,30.11,North,355,0.0,3.0,91,0.00,,,0.00,meteohub,2013-02-14 11:42:00,
2013-02-14 05:47:00,40.3,37.9,30.11,North,355,0.0,3.0,91,0.00,,,0.00,meteohub,2013-02-14 11:47:00,
2013-02-14 05:52:00,40.1,37.8,30.11,North,355,2.0,2.0,91,0.00,,,0.00,meteohub,2013-02-14 11:52:00,
2013-02-14 05:57:00,39.9,37.8,30.11,North,0,0.0,3.0,92,0.00,,,0.00,meteohub,2013-02-14 11:57:00,
2013-02-14 06:02:00,39.9,37.8,30.11,North,0,1.0,3.0,92,0.00,,,0.00,meteohub,2013-02-14 12:02:00,
2013-02-14 06:07:00,39.9,37.8,30.12,North,11,2.0,3.0,92,0.00,,,0.00,meteohub,2013-02-14 12:07:00,
2013-02-14 06:12:00,39.9,37.8,30.12,North,355,0.0,4.0,92,0.00,,,0.00,meteohub,2013-02-14 12:12:00,
2013-02-14 06:17:00,39.9,37.8,30.12,North,355,0.0,4.0,92,0.00,,,0.00,meteohub,2013-02-14 12:17:00,
2013-02-14 06:22:00,39.7,37.6,30.12,North,355,0.0,4.0,92,0.00,,,0.00,meteohub,2013-02-14 12:22:00,
2013-02-14 06:27:00,39.4,37.0,30.13,North,355,0.0,1.0,91,0.00,,,0.00,meteohub,2013-02-14 12:27:00,
2013-02-14 06:32:00,39.0,36.7,30.13,North,355,0.0,0.0,91,0.00,,,0.00,meteohub,2013-02-14 12:32:00,
2013-02-14 06:37:00,38.8,36.7,30.14,North,355,1.0,0.0,92,0.00,,,0.00,meteohub,2013-02-14 12:37:00,
2013-02-14 06:42:00,38.7,36.5,30.14,North,355,1.0,2.0,92,0.00,,,0.00,meteohub,2013-02-14 12:42:00,
2013-02-14 06:47:00,38.7,36.5,30.14,North,355,0.0,2.0,92,0.00,,,0.00,meteohub,2013-02-14 12:47:00,
2013-02-14 06:52:00,38.7,36.9,30.14,North,355,0.0,2.0,93,0.00,,,0.00,meteohub,2013-02-14 12:52:00,
2013-02-14 06:57:00,38.7,36.9,30.14,North,355,0.0,2.0,93,0.00,,,0.00,meteohub,2013-02-14 12:57:00,
2013-02-14 07:02:00,38.7,36.9,30.15,North,355,0.0,2.0,93,0.00,,,0.00,meteohub,2013-02-14 13:02:00,
2013-02-14 07:07:00,38.8,37.0,30.15,North,355,0.0,2.0,93,0.00,,,0.00,meteohub,2013-02-14 13:07:00,
2013-02-14 07:12:00,38.8,37.0,30.15,North,355,0.0,1.0,93,0.00,,,0.00,meteohub,2013-02-14 13:12:00,
2013-02-14 07:17:00,39.4,37.8,30.15,North,355,0.0,1.0,94,0.00,,,0.00,meteohub,2013-02-14 13:17:00,
2013-02-14 07:22:00,39.6,37.8,30.15,North,355,0.0,1.0,93,0.00,,,0.00,meteohub,2013-02-14 13:22:00,
2013-02-14 07:27:00,39.7,37.9,30.16,North,355,0.0,1.0,93,0.00,,,0.00,meteohub,2013-02-14 13:27:00,
2013-02-14 07:32:00,40.3,38.7,30.15,North,355,0.0,1.0,94,0.00,,,0.00,meteohub,2013-02-14 13:32:00,
2013-02-14 07:37:00,40.8,39.2,30.16,North,355,0.0,2.0,94,0.00,,,0.00,meteohub,2013-02-14 13:37:00,
2013-02-14 07:42:00,40.8,39.0,30.16,North,355,0.0,2.0,93,0.00,,,0.00,meteohub,2013-02-14 13:42:00,
2013-02-14 07:47:00,41.5,39.9,30.16,North,355,0.0,2.0,94,0.00,,,0.00,meteohub,2013-02-14 13:47:00,
2013-02-14 07:52:00,42.4,40.6,30.16,North,355,1.0,2.0,93,0.00,,,0.00,meteohub,2013-02-14 13:52:00,
2013-02-14 07:57:00,43.2,41.0,30.16,North,355,0.0,2.0,92,0.00,,,0.00,meteohub,2013-02-14 13:57:00,
2013-02-14 08:02:00,43.9,41.2,30.16,North,355,1.0,2.0,90,0.00,,,0.00,meteohub,2013-02-14 14:02:00,
2013-02-14 08:07:00,44.2,41.0,30.16,North,355,2.0,2.0,88,0.00,,,0.00,meteohub,2013-02-14 14:07:00,
2013-02-14 08:12:00,44.2,40.6,30.16,North,355,1.0,2.0,87,0.00,,,0.00,meteohub,2013-02-14 14:12:00,
2013-02-14 08:17:00,44.2,40.6,30.15,North,355,1.0,2.0,87,0.00,,,0.00,meteohub,2013-02-14 14:17:00,
2013-02-14 08:22:00,44.4,40.8,30.15,North,355,2.0,3.0,87,0.00,,,0.00,meteohub,2013-02-14 14:22:00,
2013-02-14 08:27:00,44.8,40.8,30.15,North,355,0.0,4.0,86,0.00,,,0.00,meteohub,2013-02-14 14:27:00,
2013-02-14 08:32:00,45.0,41.0,30.16,North,355,1.0,4.0,86,0.00,,,0.00,meteohub,2013-02-14 14:32:00,
2013-02-14 08:37:00,45.3,41.4,30.16,North,355,0.0,4.0,86,0.00,,,0.00,meteohub,2013-02-14 14:37:00,
2013-02-14 08:42:00,45.9,41.5,30.16,North,355,1.0,3.0,85,0.00,,,0.00,meteohub,2013-02-14 14:42:00,
2013-02-14 08:47:00,46.0,41.5,30.16,North,355,0.0,3.0,84,0.00,,,0.00,meteohub,2013-02-14 14:47:00,
2013-02-14 08:52:00,46.4,41.9,30.16,North,355,3.0,3.0,84,0.00,,,0.00,meteohub,2013-02-14 14:52:00,
2013-02-14 08:57:00,46.6,41.7,30.17,North,355,0.0,4.0,83,0.00,,,0.00,meteohub,2013-02-14 14:57:00,
2013-02-14 09:02:00,46.9,42.1,30.17,North,355,0.0,4.0,83,0.00,,,0.00,meteohub,2013-02-14 15:02:00,
2013-02-14 09:07:00,47.1,41.5,30.17,North,355,1.0,4.0,81,0.00,,,0.00,meteohub,2013-02-14 15:07:00,
2013-02-14 09:12:00,47.5,42.3,30.17,NNW,348,0.0,3.0,82,0.00,,,0.00,meteohub,2013-02-14 15:12:00,
2013-02-14 09:17:00,48.6,43.0,30.17,NNE,15,1.0,3.0,81,0.00,,,0.00,meteohub,2013-02-14 15:17:00,
2013-02-14 09:22:00,48.9,42.1,30.17,North,11,1.0,3.0,77,0.00,,,0.00,meteohub,2013-02-14 15:22:00,
2013-02-14 09:27:00,49.6,42.8,30.17,SSE,150,1.0,3.0,77,0.00,,,0.00,meteohub,2013-02-14 15:27:00,
2013-02-14 09:32:00,50.7,42.8,30.17,SE,142,3.0,3.0,74,0.00,,,0.00,meteohub,2013-02-14 15:32:00,
2013-02-14 09:37:00,51.1,42.1,30.17,SE,125,3.0,6.0,71,0.00,,,0.00,meteohub,2013-02-14 15:37:00,
2013-02-14 09:42:00,51.4,41.9,30.17,East,88,1.0,6.0,70,0.00,,,0.00,meteohub,2013-02-14 15:42:00,
2013-02-14 09:47:00,51.4,41.5,30.17,ESE,119,5.0,7.0,69,0.00,,,0.00,meteohub,2013-02-14 15:47:00,
2013-02-14 09:52:00,51.6,41.7,30.16,SE,136,1.0,7.0,69,0.00,,,0.00,meteohub,2013-02-14 15:52:00,
2013-02-14 09:57:00,52.5,41.5,30.17,ESE,121,2.0,7.0,66,0.00,,,0.00,meteohub,2013-02-14 15:57:00,
2013-02-14 10:02:00,52.7,41.2,30.17,ESE,115,5.0,7.0,65,0.00,,,0.00,meteohub,2013-02-14 16:02:00,
2013-02-14 10:07:00,52.5,40.6,30.17,ENE,78,3.0,8.0,64,0.00,,,0.00,meteohub,2013-02-14 16:07:00,
2013-02-14 10:12:00,51.6,40.6,30.16,NNE,28,2.0,8.0,66,0.00,,,0.00,meteohub,2013-02-14 16:12:00,
2013-02-14 10:17:00,51.4,40.8,30.17,SE,146,4.0,8.0,67,0.00,,,0.00,meteohub,2013-02-14 16:17:00,
2013-02-14 10:22:00,52.0,41.0,30.17,NE,48,5.0,13.0,66,0.00,,,0.00,meteohub,2013-02-14 16:22:00,
2013-02-14 10:27:00,51.6,40.3,30.17,ESE,121,7.0,13.0,65,0.00,,,0.00,meteohub,2013-02-14 16:27:00,
2013-02-14 10:32:00,52.3,40.5,30.17,ESE,110,10.0,13.0,64,0.00,,,0.00,meteohub,2013-02-14 16:32:00,
2013-02-14 10:37:00,52.3,41.0,30.17,SE,128,4.0,10.0,65,0.00,,,0.00,meteohub,2013-02-14 16:37:00,
2013-02-14 10:42:00,53.1,41.2,30.16,ENE,77,1.0,10.0,64,0.00,,,0.00,meteohub,2013-02-14 16:42:00,
2013-02-14 10:47:00,53.1,41.2,30.17,NE,38,1.0,10.0,64,0.00,,,0.00,meteohub,2013-02-14 16:47:00,
2013-02-14 10:52:00,52.9,40.6,30.17,ENE,67,1.0,8.0,63,0.00,,,0.00,meteohub,2013-02-14 16:52:00,
2013-02-14 10:57:00,52.9,40.3,30.16,NNW,338,3.0,8.0,62,0.00,,,0.00,meteohub,2013-02-14 16:57:00,
2013-02-14 11:02:00,52.7,40.8,30.16,North,10,4.0,5.0,64,0.00,,,0.00,meteohub,2013-02-14 17:02:00,
2013-02-14 11:07:00,53.2,41.0,30.16,SSE,148,2.0,7.0,63,0.00,,,0.00,meteohub,2013-02-14 17:07:00,
2013-02-14 11:12:00,54.0,41.2,30.16,ESE,112,2.0,7.0,62,0.00,,,0.00,meteohub,2013-02-14 17:12:00,
2013-02-14 11:17:00,54.7,41.0,30.15,South,178,3.0,7.0,60,0.00,,,0.00,meteohub,2013-02-14 17:17:00,
2013-02-14 11:22:00,55.2,41.2,30.15,SW,232,0.0,7.0,59,0.00,,,0.00,meteohub,2013-02-14 17:22:00,
2013-02-14 11:27:00,55.2,41.5,30.15,NNE,13,8.0,8.0,60,0.00,,,0.00,meteohub,2013-02-14 17:27:00,
2013-02-14 11:32:00,54.5,40.8,30.15,NNW,334,6.0,9.0,60,0.00,,,0.00,meteohub,2013-02-14 17:32:00,
2013-02-14 11:37:00,54.0,40.8,30.15,North,355,4.0,9.0,61,0.00,,,0.00,meteohub,2013-02-14 17:37:00,
2013-02-14 11:42:00,54.3,42.1,30.14,NE,50,3.0,9.0,63,0.00,,,0.00,meteohub,2013-02-14 17:42:00,
2013-02-14 11:47:00,54.3,41.5,30.14,NNE,30,4.0,8.0,62,0.00,,,0.00,meteohub,2013-02-14 17:47:00,
2013-02-14 20:15:00,50.5,40.5,30.10,WSW,238,0.0,3.0,68,0.00,,,0.00,meteohub,2013-02-15 02:15:00,
2013-02-14 20:20:00,50.7,39.7,30.10,WSW,238,0.0,3.0,66,0.00,,,0.00,meteohub,2013-02-15 02:20:00,
2013-02-14 20:25:00,50.7,39.7,30.10,WSW,238,0.0,3.0,66,0.00,,,0.00,meteohub,2013-02-15 02:25:00,
2013-02-14 20:30:00,50.7,39.7,30.10,WSW,237,0.0,1.0,66,0.00,,,0.00,meteohub,2013-02-15 02:30:00,
2013-02-14 20:35:00,50.7,39.4,30.11,WSW,238,0.0,1.0,65,0.00,,,0.00,meteohub,2013-02-15 02:35:00,
2013-02-14 20:40:00,50.7,39.4,30.11,WSW,237,0.0,1.0,65,0.00,,,0.00,meteohub,2013-02-15 02:40:00,
2013-02-14 20:45:00,50.7,39.4,30.11,WSW,238,0.0,1.0,65,0.00,,,0.00,meteohub,2013-02-15 02:45:00,
2013-02-14 20:50:00,50.7,39.4,30.11,WSW,238,0.0,1.0,65,0.00,,,0.00,meteohub,2013-02-15 02:50:00,
2013-02-14 20:55:00,50.5,39.6,30.11,WSW,237,0.0,0.0,66,0.00,,,0.00,meteohub,2013-02-15 02:55:00,
2013-02-14 21:00:00,50.4,39.7,30.11,WSW,237,0.0,0.0,67,0.00,,,0.00,meteohub,2013-02-15 03:00:00,
2013-02-14 21:05:00,50.2,40.1,30.11,WSW,238,0.0,1.0,68,0.00,,,0.00,meteohub,2013-02-15 03:05:00,
2013-02-14 21:10:00,49.8,40.8,30.11,WSW,237,0.0,1.0,71,0.00,,,0.00,meteohub,2013-02-15 03:10:00,
2013-02-14 21:15:00,49.5,40.1,30.11,WSW,238,0.0,1.0,70,0.00,,,0.00,meteohub,2013-02-15 03:15:00,
2013-02-14 21:20:00,48.7,40.8,30.11,WSW,237,0.0,1.0,74,0.00,,,0.00,meteohub,2013-02-15 03:20:00,
2013-02-14 21:25:00,48.0,40.8,30.11,WSW,238,0.0,1.0,76,0.00,,,0.00,meteohub,2013-02-15 03:25:00,
2013-02-14 21:30:00,47.7,40.5,30.11,WSW,238,0.0,1.0,76,0.00,,,0.00,meteohub,2013-02-15 03:30:00,
2013-02-14 21:35:00,47.5,39.9,30.11,WSW,238,0.0,1.0,75,0.00,,,0.00,meteohub,2013-02-15 03:35:00,
2013-02-14 21:40:00,47.5,40.6,30.11,WSW,238,0.0,0.0,77,0.00,,,0.00,meteohub,2013-02-15 03:40:00,
2013-02-14 21:45:00,47.1,39.9,30.11,WSW,238,0.0,0.0,76,0.00,,,0.00,meteohub,2013-02-15 03:45:00,
2013-02-14 21:50:00,46.9,39.7,30.11,WSW,238,0.0,0.0,76,0.00,,,0.00,meteohub,2013-02-15 03:50:00,
2013-02-14 21:55:00,46.9,40.8,30.11,WSW,237,0.0,0.0,79,0.00,,,0.00,meteohub,2013-02-15 03:55:00,
2013-02-14 22:00:00,46.8,41.0,30.11,WSW,238,0.0,0.0,80,0.00,,,0.00,meteohub,2013-02-15 04:00:00,
2013-02-14 22:05:00,46.6,41.0,30.11,WSW,238,2.0,2.0,81,0.00,,,0.00,meteohub,2013-02-15 04:05:00,
2013-02-14 22:10:00,46.8,41.2,30.11,WSW,237,0.0,3.0,81,0.00,,,0.00,meteohub,2013-02-15 04:10:00,
2013-02-14 22:15:00,46.8,41.0,30.12,WSW,238,0.0,3.0,80,0.00,,,0.00,meteohub,2013-02-15 04:15:00,
2013-02-14 22:20:00,46.6,41.0,30.12,WSW,238,0.0,3.0,81,0.00,,,0.00,meteohub,2013-02-15 04:20:00,
2013-02-14 22:25:00,46.6,41.4,30.12,WSW,238,0.0,2.0,82,0.00,,,0.00,meteohub,2013-02-15 04:25:00,
2013-02-14 22:30:00,46.6,40.8,30.12,WSW,238,0.0,1.0,80,0.00,,,0.00,meteohub,2013-02-15 04:30:00,
2013-02-14 22:35:00,46.6,40.5,30.11,WSW,238,0.0,1.0,79,0.00,,,0.00,meteohub,2013-02-15 04:35:00,
2013-02-14 22:40:00,46.4,40.6,30.12,WSW,237,0.0,1.0,80,0.00,,,0.00,meteohub,2013-02-15 04:40:00,
2013-02-14 22:45:00,46.0,40.8,30.12,WSW,237,0.0,1.0,82,0.00,,,0.00,meteohub,2013-02-15 04:45:00,
2013-02-14 22:50:00,45.9,41.0,30.12,WSW,237,0.0,1.0,83,0.00,,,0.00,meteohub,2013-02-15 04:50:00,
2013-02-14 22:55:00,45.9,41.4,30.12,WSW,238,0.0,1.0,84,0.00,,,0.00,meteohub,2013-02-15 04:55:00,
2013-02-14 23:00:00,46.0,41.5,30.11,WSW,238,0.0,1.0,84,0.00,,,0.00,meteohub,2013-02-15 05:00:00,
2013-02-14 23:05:00,45.7,40.8,30.11,WSW,238,0.0,1.0,83,0.00,,,0.00,meteohub,2013-02-15 05:05:00,
2013-02-14 23:10:00,45.0,40.5,30.11,WSW,237,0.0,1.0,84,0.00,,,0.00,meteohub,2013-02-15 05:10:00,
2013-02-14 23:15:00,44.4,40.3,30.11,WSW,238,0.0,1.0,85,0.00,,,0.00,meteohub,2013-02-15 05:15:00,
2013-02-14 23:20:00,44.2,40.3,30.10,WSW,238,0.0,1.0,86,0.00,,,0.00,meteohub,2013-02-15 05:20:00,
2013-02-14 23:25:00,44.1,40.1,30.10,WSW,237,0.0,1.0,86,0.00,,,0.00,meteohub,2013-02-15 05:25:00,
2013-02-14 23:30:00,43.9,40.3,30.10,WSW,237,0.0,0.0,87,0.00,,,0.00,meteohub,2013-02-15 05:30:00,
2013-02-14 23:35:00,43.9,39.9,30.10,WSW,237,0.0,0.0,86,0.00,,,0.00,meteohub,2013-02-15 05:35:00,
2013-02-14 23:40:00,43.9,40.3,30.10,WSW,238,0.0,0.0,87,0.00,,,0.00,meteohub,2013-02-15 05:40:00,
2013-02-14 23:46:00,44.1,40.5,30.10,WSW,237,0.0,0.0,87,0.00,,,0.00,meteohub,2013-02-15 05:46:00,
2013-02-14 23:51:00,44.1,40.5,30.10,WSW,238,0.0,0.0,87,0.00,,,0.00,meteohub,2013-02-15 05:51:00,
2013-02-14 23:56:00,44.1,40.5,30.10,WSW,238,0.0,0.0,87,0.00,,,0.00,meteohub,2013-02-15 05:56:00,